Tracking 20232 objects as of 20-Jan-2020
HD Live streaming from Space Station
objects crossing your sky now

ARIANE 42P DEB

Track ARIANE 42P DEB now!
10-day predictions


NORAD ID: 44508
Int'l Code: 1992-052F
Perigee: 1,122.8 km
Apogee: 1,698.6 km
Inclination: 66.0 °
Period: 113.9 minutes
Semi major axis: 7781 km
RCS: Unknown
Launch date: August 10, 1992
Source: France (FR)
Launch site: FRENCH GUIANA (FRGUI)

Note: This is SATELLITE DEBRIS
aabbcc
Your satellite tracking list
Your tracking list is empty




NASA's NSSDC Master Catalog

Two Line Element Set (TLE):
1 44508U 92052F   20019.66842106 -.00000873 +00000-0 -33687-2 0  9993
2 44508 066.0339 103.6977 0369990 238.5668 117.8672 12.64716571020089
Source of the keplerian elements: AFSPC